This demonstration page uses our WeatherBlox Daily Observations layout. Learn more.

Left ArrowRight Arrow

Hourly Observations for September 8, 2020

Temp ( °F °C ) Dew Point ( °F °C ) Humidity (%) Winds ( mph kmh ) Pressure ( in mb ) Visibility ( mi km ) Precip ( " mm )
12:53 am 00:53 Clear 77 25 64 17.8 64 64 SE 20 31 29.58 1002 10 16 0.00 0.00
1:53 am 01:53 Clear 75 23.9 65 18.3 71 71 SE 21 33 29.57 1001 10 16 0.00 0.00
2:53 am 02:53 Clear 74 23.3 65 18.3 74 74 SE 17 28 29.56 1001 10 16 0.00 0.00
3:53 am 03:53 Clear 73 22.8 66 18.9 79 79 SE 15 24 29.55 1001 10 16 0.00 0.00
4:53 am 04:53 Clear 72 22.2 66 18.9 82 82 SE 14 22 29.54 1000 10 16 0.00 0.00
5:53 am 05:53 Clear 72 22.2 66 18.9 82 82 SE 14 22 29.55 1001 10 16 0.00 0.00
6:53 am 06:53 Clear 71 21.7 66 18.9 84 84 SE 15 24 29.55 1001 10 16 0.00 0.00
7:53 am 07:53 Sunny 71 21.7 66 18.9 84 84 SE 15 24 29.57 1001 10 16 0.00 0.00
8:53 am 08:53 Sunny 73 22.8 66 18.9 79 79 SE 22 35 29.57 1002 10 16 0.00 0.00
9:53 am 09:53 Sunny 77 25 65 18.3 66 66 SE 22 35 29.59 1002 10 16 0.00 0.00
10:53 am 10:53 Sunny 82 27.8 63 17.2 53 53 SSE 20 31 29.60 1002 10 16 0.00 0.00
11:53 am 11:53 Sunny 86 30 62 16.7 45 45 SSE 17 28 29.59 1002 10 16 0.00 0.00
12:53 pm 12:53 Sunny 92 33.3 60 15.6 34 34 SSE 17 28 29.57 1001 10 16 0.00 0.00
1:53 pm 13:53 Sunny 94 34.4 59 15 31 31 SE 14 22 29.56 1001 10 16 0.00 0.00
2:53 pm 14:53 Sunny 96 35.6 59 15 29 29 ESE 17 28 29.54 1001 10 16 0.00 0.00
3:53 pm 15:53 Sunny 97 36.1 59 15 28 28 SE 18 30 29.50 999 10 16 0.00 0.00
4:53 pm 16:53 Sunny 96 35.6 60 15.6 30 30 ESE 21 33 29.49 999 10 16 0.00 0.00
5:53 pm 17:53 Sunny 92 33.3 60 15.6 34 34 SE 22 35 29.50 999 10 16 0.00 0.00
6:16 pm 18:16 Hazy 85 29.4 57 13.9 39 39 N 31 50 29.56 1001 6 10 0.00 0.00
6:20 pm 18:20 Partly Cloudy with Nearby Thunderstorms 76 24.4 53 11.7 45 45 N 28 44 29.62 1003 4 6 0.00 0.00
6:29 pm 18:29 Mostly Cloudy with Nearby Thunderstorms 72 22.2 55 12.8 55 55 NNW 38 61 29.66 1004 3 4 0.00 0.00
6:34 pm 18:34 Mostly Cloudy with Thunderstorms 69 20.6 58 14.4 68 68 N 31 50 29.67 1005 3 5 0.00 0.00
6:40 pm 18:40 Cloudy with Strong Thunderstorms 65 18.3 62 16.7 90 90 NNW 33 54 29.70 1006 2 3 0.00 0.00
6:45 pm 18:45 Cloudy with Strong Thunderstorms 65 18.3 64 17.8 97 97 NNW 36 57 29.71 1006 1 1 0.00 0.00
7:53 pm 19:53 Cloudy with Light Rain 60 15.6 57 13.9 90 90 NNE 39 63 29.73 1007 6 10 0.00 0.00
8:53 pm 20:53 Mostly Cloudy with Nearby Thunderstorms 60 15.6 56 13.3 86 86 NE 22 35 29.75 1007 10 16 0.00 0.00
9:21 pm 21:21 Cloudy with Heavy Rain 60 15.6 57 13.9 90 90 ENE 17 28 29.85 1011 3 4 0.00 0.00
9:35 pm 21:35 Cloudy with Light Rain 61 16.1 58 14.4 90 90 ENE 16 26 29.84 1010 7 11 0.00 0.00
9:53 pm 21:53 Cloudy 60 15.6 56 13.3 86 86 ENE 22 35 29.80 1009 10 16 0.00 0.00
10:53 pm 22:53 Cloudy 60 15.6 55 12.8 84 84 ENE 12 19 29.84 1011 10 16 0.00 0.00
11:49 pm 23:49 Cloudy with Light Rain 57 14 55 13 94 94 N 18 30 29.97 1015 9 14 0.00 0.00
11:53 pm 23:53 Cloudy with Light Rain 57 13.9 54 12.2 90 90 N 17 28 29.91 1013 10 16 0.00 0.00

Powered by AerisWeather